This is the latest recevied weather packets stored in our database for station/object KB3AWQ. If no packets are shown the sender has not sent any weather packets the latest 10 day(s).
| Time | Temp. | Humidity | Pressure | Rain* | Wind** | Luminosity | Snow |
|---|---|---|---|---|---|---|---|
| 1788022766 | 24.44° C | 51% | 1024.9 hPa | 0 mm | - | 872 W/m² | - |
| 1788022466 | 24.44° C | 53% | 1024.9 hPa | 0 mm | - | 871 W/m² | - |
| 1788022166 | 24.44° C | 51% | 1025 hPa | 0 mm | - | 870 W/m² | - |
| 1788021867 | 24.44° C | 54% | 1025 hPa | 0 mm | - | 869 W/m² | - |
| 1788021566 | 24.44° C | 53% | 1025.1 hPa | 0 mm | - | 867 W/m² | - |
| 1788021266 | 24.44° C | 51% | 1025.1 hPa | 0 mm | - | 865 W/m² | - |
| 1788020966 | 23.89° C | 55% | 1025.1 hPa | 0 mm | - | 862 W/m² | - |
| 1788020666 | 23.33° C | 54% | 1025.2 hPa | 0 mm | - | 860 W/m² | - |
| 1788020372 | 23.89° C | 56% | 1025.2 hPa | 0 mm | - | 856 W/m² | - |
| 1788020066 | 23.33° C | 55% | 1025.3 hPa | 0 mm | - | 853 W/m² | - |
| 1788019767 | 23.33° C | 55% | 1025.2 hPa | 0 mm | - | 849 W/m² | - |
| 1788019467 | 23.33° C | 54% | 1025.3 hPa | 0 mm | - | 843 W/m² | - |
| 1788019168 | 23.33° C | 56% | 1025.3 hPa | 0 mm | - | 838 W/m² | - |
| 1788018866 | 22.78° C | 62% | 1025.4 hPa | 0 mm | - | 832 W/m² | - |
| 1788018567 | 22.78° C | 56% | 1025.4 hPa | 0 mm | - | 826 W/m² | - |
| 1788018266 | 22.22° C | 60% | 1025.4 hPa | 0 mm | - | 819 W/m² | - |
| 1788017967 | 21.67° C | 62% | 1025.4 hPa | 0 mm | - | 812 W/m² | - |
| 1788017666 | 21.67° C | 63% | 1025.4 hPa | 0 mm | - | 804 W/m² | - |
| 1788017366 | 21.67° C | 66% | 1025.4 hPa | 0 mm | - | 794 W/m² | - |
| 1788017066 | 21.67° C | 65% | 1025.4 hPa | 0 mm | - | 784 W/m² | - |
| 1788016766 | 21.67° C | 66% | 1025.5 hPa | 0 mm | - | 775 W/m² | - |
| 1788016467 | 21.11° C | 73% | 1025.5 hPa | 0 mm | - | 767 W/m² | - |
| 1788016166 | 20° C | 74% | 1025.5 hPa | 0 mm | - | 748 W/m² | - |
| 1788015867 | 20° C | 76% | 1025.6 hPa | 0 mm | - | 745 W/m² | - |
| 1788015567 | 20° C | 77% | 1025.7 hPa | 0 mm | - | 734 W/m² | - |
* Rain latest hour (hover to see other rain measurements)
** Current wind speed in m/s (hover to see current wind gust speed)